User: anonymous   Login
Location: Owatonna
(44.0840°N, 93.2260°W)
Time: 19:28:01
(UTC-05:00)
Language:

ALOS - Orbit

View from above orbital plane
View from above orbital plane
View from above satellite
View from above satellite

Ground track
Ground track

The orbit data is extracted from the following two-line orbital elements,

1 28931U 06002A   15214.20530874  .00000413  00000-0  91300-4 0  9998
2 28931 097.9289 261.7610 0001063 050.5750 309.5545 14.61931324507360
Epoch (UTC): 02 August 2015 04:55:38
Eccentricity: 0.0001063
inclination: 97.9289°
perigee height: 686 km
apogee height: 688 km
right ascension of ascending node: 261.7610°
argument of perigee: 50.5750°
revolutions per day: 14.61931324
mean anomaly at epoch: 309.5545°
orbit number at epoch: 50736

The dashed part of the orbit path shows where the satellite is in the earth's shadow,  

DLR